World > North America > United States > Alabama
Hourly Weather in Castleberry, AlabamaCastleberry, Alabama Hourly Weather

Castleberry, AL Hourly Weather

Hourly Weather Castleberry, AlabamaHourly Weather in Castleberry, AL
Lat: 31.30N, Lon: 87.02W  ICAO: KGZH
Web Search
Castleberry Weather Warning NWS WEATHER ALERT FOR THE CASTLEBERRY, AL AREA - WIND ADVISORY Issued: 326 PM CDT Wed Oct 27 2021 Castleberry Weather Warning  

Our weather pages are very print friendly and they make great conversation starters.

Feedback

Castleberry Hourly Weather

36 Hour Weather Scroll   °F Click to change Castleberry hourly weather to Imperial units.Click to change Castleberry hourly weather to Metric units. °C
Currently, Clear, temperature is 76°F24°C, dew point 52°F11°C, humidity 43%. Wind direction is SSE at 8 mph13 km/h with visibility of 10.00 mi16 km. Barometric pressure is 29.8 in1009 mb.

Oct 27
3:00 PM

Oct 27
4:00 PM

Oct 27
5:00 PM

Oct 27
6:00 PM

Oct 27
7:00 PM

Oct 27
8:00 PM

Oct 27
9:00 PM

Oct 27
10:00 PM

Oct 27
11:00 PM

Oct 28
MIDNIGHT

Oct 28
1:00 AM

Oct 28
2:00 AM

Oct 28
3:00 AM

Oct 28
4:00 AM

Oct 28
5:00 AM

Oct 28
6:00 AM

Oct 28
7:00 AM

Oct 28
8:00 AM

Oct 28
9:00 AM

Oct 28
10:00 AM

Oct 28
11:00 AM

Oct 28
NOON

Oct 28
1:00 PM

Oct 28
2:00 PM

Oct 28
3:00 PM

Oct 28
4:00 PM

Oct 28
5:00 PM

Oct 28
6:00 PM

Oct 28
7:00 PM

Oct 28
8:00 PM

Oct 28
9:00 PM

Oct 28
10:00 PM

Oct 28
11:00 PM

Oct 29
MIDNIGHT

Oct 29
1:00 AM

Oct 29
2:00 AM
Clear Clear Clear Cloudy Cloudy Cloudy Cloudy Cloudy Cloudy Cloudy Cloudy Cloudy Cloudy Cloudy Cloudy Mostly Cloudy Mostly Cloudy Mostly Cloudy Mostly Cloudy Mostly Cloudy Mostly Cloudy Mostly Cloudy Mostly Cloudy Mostly Cloudy Mostly Cloudy Mostly Cloudy Mostly Cloudy Cloudy Cloudy Cloudy Cloudy Cloudy Cloudy Cloudy Cloudy Cloudy
Clear Clear Clear Cloudy Cloudy Cloudy Cloudy Cloudy Cloudy Cloudy Cloudy Cloudy Cloudy Cloudy Cloudy Mostly Cloudy Mostly Cloudy Mostly Cloudy Mostly Cloudy Mostly Cloudy Mostly Cloudy Mostly Cloudy Mostly Cloudy Mostly Cloudy Mostly Cloudy Mostly Cloudy Mostly Cloudy Cloudy Cloudy Cloudy Cloudy Cloudy Cloudy Cloudy Cloudy Cloudy
77°F25°C 78°F26°C 75°F24°C 73°F23°C 70°F21°C 69°F21°C 67°F19°C 66°F19°C 65°F18°C 63°F17°C 62°F17°C 61°F16°C 61°F16°C 60°F16°C 59°F15°C 59°F15°C 58°F14°C 60°F16°C 63°F17°C 65°F18°C 66°F19°C 68°F20°C 69°F21°C 69°F21°C 68°F20°C 68°F20°C 66°F19°C 63°F17°C 61°F16°C 60°F16°C 59°F15°C 58°F14°C 57°F14°C 56°F13°C 55°F13°C 55°F13°C
- - - - - Rain Rain Rain Rain Rain Rain Rain Rain Rain Rain Rain Rain - - - - - - - - - - - - Rain Rain Rain Rain Rain Rain Rain
1% 1% 1% 1% 1% 70% 70% 70% 70% 70% 70% 73% 73% 73% 73% 73% 73% 3% 3% 3% 3% 3% 3% 7% 7% 7% 7% 7% 7% 21% 21% 21% 21% 21% 21% 27%
50°F10°C 51°F11°C 54°F12°C 56°F13°C 59°F15°C 60°F16°C 61°F16°C 62°F17°C 61°F16°C 60°F16°C 59°F15°C 58°F14°C 58°F14°C 57°F14°C 56°F13°C 56°F13°C 55°F13°C 55°F13°C 56°F13°C 56°F13°C 55°F13°C 54°F12°C 53°F12°C 52°F11°C 52°F11°C 51°F11°C 51°F11°C 52°F11°C 52°F11°C 52°F11°C 51°F11°C 51°F11°C 51°F11°C 50°F10°C 50°F10°C 50°F10°C
39% 39% 48% 55% 68% 73% 81% 87% 87% 90% 90% 90% 90% 90% 90% 90% 90% 84% 78% 73% 68% 61% 57% 55% 57% 55% 58% 67% 72% 75% 75% 77% 80% 80% 83% 83%
SSE SSE SSE SSE SE SE SE SE SE SE SE SSE SSE S S SSE SW SW SW SW SW SW SW SW SW SW SSW SSW SSW SSW SSW SSW SSW SW SW SSW
9 mph 9 mph 9 mph 8 mph 8 mph 8 mph 12 mph 12 mph 12 mph 15 mph 15 mph 15 mph 13 mph 13 mph 13 mph 9 mph 9 mph 9 mph 11 mph 11 mph 11 mph 11 mph 11 mph 11 mph 12 mph 12 mph 12 mph 13 mph 13 mph 13 mph 11 mph 11 mph 11 mph 14 mph 14 mph 14 mph
10 mi16 km 10 mi16 km 10 mi16 km 10 mi16 km 10 mi16 km 10 mi16 km 10 mi16 km 10 mi16 km 10 mi16 km 6 mi10 km 6 mi10 km 6 mi10 km 10 mi16 km 10 mi16 km 10 mi16 km 6 mi10 km 6 mi10 km 6 mi10 km 10 mi16 km 10 mi16 km 10 mi16 km 10 mi16 km 10 mi16 km 10 mi16 km 10 mi16 km 10 mi16 km 10 mi16 km 10 mi16 km 10 mi16 km 10 mi16 km 10 mi16 km 10 mi16 km 10 mi16 km 10 mi16 km 10 mi16 km 10 mi16 km
Hour (CDT)
Weather
Clouds
Temperature
Precip. Type
POP
Dewpoint
Humidity
Wind Direction
Wind Speed
Visibility
POP = Probability of Precipitation. ** Indicates missing data/values from model statistics.

24 Hour Forecast

Rest of Today - Mostly sunny. Near steady temperature in the upper 70s. Southeast winds 5 to 10 mph.
Tonight - Warmer. Chance of showers and thunderstorms in the evening, then showers and chance of thunderstorms after midnight. Lows in the mid 60s. Southeast winds 5 to 15 mph. Chance of precipitation near 100%.

48 Hour Forecast API Feed


Wed, Oct 27
3:00 pm

Wed, Oct 27
4:00 pm

Wed, Oct 27
5:00 pm

Wed, Oct 27
6:00 pm

Wed, Oct 27
7:00 pm

Wed, Oct 27
8:00 pm

Wed, Oct 27
9:00 pm

Wed, Oct 27
10:00 pm

Wed, Oct 27
11:00 pm

Thu, Oct 28
Midnight

Thu, Oct 28
1:00 am

Thu, Oct 28
2:00 am

Thu, Oct 28
3:00 am

Thu, Oct 28
4:00 am

Thu, Oct 28
5:00 am

Thu, Oct 28
6:00 am

Thu, Oct 28
7:00 am

Thu, Oct 28
8:00 am

Thu, Oct 28
9:00 am

Thu, Oct 28
10:00 am

Thu, Oct 28
11:00 am

Thu, Oct 28
Noon

Thu, Oct 28
1:00 pm

Thu, Oct 28
2:00 pm

Thu, Oct 28
3:00 pm

Thu, Oct 28
4:00 pm

Thu, Oct 28
5:00 pm

Thu, Oct 28
6:00 pm

Thu, Oct 28
7:00 pm

Thu, Oct 28
8:00 pm

Thu, Oct 28
9:00 pm

Thu, Oct 28
10:00 pm

Thu, Oct 28
11:00 pm

Fri, Oct 29
Midnight

Fri, Oct 29
1:00 am

Fri, Oct 29
2:00 am

Fri, Oct 29
3:00 am

Fri, Oct 29
4:00 am

Fri, Oct 29
5:00 am

Fri, Oct 29
6:00 am

Fri, Oct 29
7:00 am

Fri, Oct 29
8:00 am

Fri, Oct 29
9:00 am

Fri, Oct 29
10:00 am

Fri, Oct 29
11:00 am

Fri, Oct 29
Noon

Fri, Oct 29
1:00 pm

Fri, Oct 29
2:00 pm
SunnySunnySunnyPartly CloudyClearClearPartly CloudyLight Rain ShowerLight Rain ShowerLight Rain ShowerModerate Or Heavy Rain ShowerModerate RainHeavy RainHeavy Rain At TimesModerate RainModerate Rain At TimesHeavy Rain At TimesMistSunnySunnySunnyPartly CloudyPartly CloudyPartly CloudyPartly CloudyPartly CloudyPartly CloudyPartly CloudyPatchy Rain PossibleCloudyOvercastPartly CloudyCloudyOvercastOvercastOvercastOvercastOvercastOvercastOvercastOvercastOvercastOvercastOvercastOvercastOvercastPatchy Rain PossibleOvercast
Sunny Sunny Sunny Partly cloudy Clear Clear Partly cloudy Light rain showers Light rain showers Light rain showers Moderate rain showers Moderate rain Heavy rain Heavy rain at times Moderate rain Moderate rain at times Heavy rain at times Mist Sunny Sunny Sunny Partly cloudy Partly cloudy Partly cloudy Partly cloudy Partly cloudy Partly cloudy Partly cloudy Patchy rain possible Cloudy Overcast Partly cloudy Cloudy Overcast Overcast Overcast Overcast Overcast Overcast Overcast Overcast Overcast Overcast Overcast Overcast Overcast Patchy rain possible Overcast
81°F
27°C
78°F
25°C
74°F
23°C
67°F
20°C
67°F
20°C
64°F
18°C
63°F
17°C
64°F
18°C
63°F
17°C
64°F
18°C
66°F
19°C
68°F
20°C
69°F
21°C
71°F
21°C
68°F
20°C
66°F
19°C
64°F
18°C
64°F
18°C
65°F
18°C
66°F
19°C
70°F
21°C
71°F
21°C
72°F
22°C
72°F
22°C
70°F
21°C
67°F
20°C
65°F
19°C
64°F
18°C
61°F
16°C
60°F
16°C
58°F
15°C
57°F
14°C
56°F
13°C
56°F
13°C
55°F
13°C
55°F
13°C
55°F
13°C
54°F
12°C
54°F
12°C
54°F
12°C
54°F
12°C
54°F
12°C
54°F
12°C
53°F
12°C
54°F
12°C
55°F
13°C
55°F
13°C
55°F
13°C
51°F
10°C
52°F
11°C
56°F
13°C
54°F
12°C
54°F
12°C
53°F
12°C
55°F
13°C
58°F
14°C
61°F
16°C
63°F
17°C
65°F
18°C
67°F
20°C
69°F
20°C
70°F
21°C
67°F
19°C
65°F
18°C
63°F
17°C
62°F
17°C
61°F
16°C
58°F
15°C
55°F
13°C
51°F
11°C
51°F
11°C
51°F
11°C
52°F
11°C
52°F
11°C
51°F
11°C
50°F
10°C
48°F
9°C
44°F
7°C
42°F
6°C
42°F
6°C
42°F
6°C
43°F
6°C
44°F
7°C
45°F
7°C
45°F
7°C
46°F
8°C
46°F
8°C
46°F
8°C
45°F
7°C
45°F
7°C
46°F
8°C
46°F
8°C
46°F
8°C
47°F
8°C
47°F
9°C
47°F
9°C
29.77 in
1008 mb
29.74 in
1007 mb
29.74 in
1007 mb
29.74 in
1007 mb
29.74 in
1007 mb
29.77 in
1008 mb
29.74 in
1007 mb
29.74 in
1007 mb
29.68 in
1005 mb
29.68 in
1005 mb
29.65 in
1004 mb
29.59 in
1002 mb
29.53 in
1000 mb
29.5 in
999 mb
29.53 in
1000 mb
29.56 in
1001 mb
29.59 in
1002 mb
29.62 in
1003 mb
29.62 in
1003 mb
29.62 in
1003 mb
29.62 in
1003 mb
29.59 in
1002 mb
29.56 in
1001 mb
29.53 in
1000 mb
29.53 in
1000 mb
29.53 in
1000 mb
29.53 in
1000 mb
29.53 in
1000 mb
29.56 in
1001 mb
29.56 in
1001 mb
29.59 in
1002 mb
29.59 in
1002 mb
29.59 in
1002 mb
29.59 in
1002 mb
29.59 in
1002 mb
29.59 in
1002 mb
29.59 in
1002 mb
29.59 in
1002 mb
29.59 in
1002 mb
29.59 in
1002 mb
29.62 in
1003 mb
29.62 in
1003 mb
29.65 in
1004 mb
29.65 in
1004 mb
29.68 in
1005 mb
29.68 in
1005 mb
29.68 in
1005 mb
29.65 in
1004 mb
35%41%54%62%62%69%74%82%93%94%96%98%99%97%96%95%95%95%87%75%58%51%48%48%54%57%60%60%62%56%55%56%60%61%66%69%70%72%75%73%71%73%74%75%75%76%76%76%
SSESSESSESESSESSESESSESESESESSESSESSWSWSWSWSWSWSWSWSWSWSWWSWWSWWSWWSWWSWWWWSWWSWWSWWSWWSWWSWWSWWSWWSWWSWWSWWSWWSWWWWW
6 mph
9 km/h
6 mph
10 km/h
5 mph
8 km/h
6 mph
10 km/h
8 mph
12 km/h
8 mph
13 km/h
9 mph
14 km/h
9 mph
15 km/h
10 mph
16 km/h
10 mph
17 km/h
10 mph
17 km/h
7 mph
12 km/h
8 mph
13 km/h
9 mph
14 km/h
9 mph
14 km/h
8 mph
12 km/h
6 mph
10 km/h
6 mph
9 km/h
9 mph
14 km/h
11 mph
17 km/h
12 mph
19 km/h
13 mph
20 km/h
13 mph
21 km/h
14 mph
22 km/h
13 mph
21 km/h
11 mph
18 km/h
10 mph
16 km/h
8 mph
13 km/h
10 mph
15 km/h
13 mph
20 km/h
11 mph
18 km/h
11 mph
18 km/h
10 mph
15 km/h
12 mph
19 km/h
12 mph
19 km/h
12 mph
19 km/h
12 mph
19 km/h
12 mph
19 km/h
11 mph
18 km/h
11 mph
17 km/h
12 mph
19 km/h
12 mph
19 km/h
11 mph
18 km/h
11 mph
18 km/h
12 mph
19 km/h
12 mph
19 km/h
12 mph
19 km/h
11 mph
17 km/h
0%0%0%0%0%0%0%93%92%83%88%91%91%78%52%75%63%0%0%0%0%0%0%0%0%0%0%0%86%0%0%0%0%0%0%0%0%0%0%0%0%0%0%0%0%0%82%0%
6 mi
10 km
6 mi
10 km
6 mi
10 km
6 mi
10 km
6 mi
10 km
6 mi
10 km
6 mi
10 km
6 mi
10 km
6 mi
10 km
6 mi
10 km
4 mi
7 km
4 mi
7 km
3 mi
5 km
4 mi
6 km
4 mi
7 km
5 mi
8 km
4 mi
6 km
1 mi
2 km
6 mi
10 km
6 mi
10 km
6 mi
10 km
6 mi
10 km
6 mi
10 km
6 mi
10 km
6 mi
10 km
6 mi
10 km
6 mi
10 km
6 mi
10 km
6 mi
10 km
6 mi
10 km
6 mi
10 km
6 mi
10 km
6 mi
10 km
6 mi
10 km
6 mi
10 km
6 mi
10 km
6 mi
10 km
6 mi
10 km
6 mi
10 km
6 mi
10 km
6 mi
10 km
6 mi
10 km
6 mi
10 km
6 mi
10 km
6 mi
10 km
6 mi
10 km
6 mi
10 km
6 mi
10 km

Day/Time
Weather
Condition
Temperature
Dew Point
Pressure
Humidity
Wind Direction
Wind Speed
Prob Precip %
Visibility
Prob Precip % = Probability of Precipitation.